NORTHERN QUEENS  -  Heat Advisory Heat Advisory     Rip Current Statement Rip Current Statement     Air Quality Alert Air Quality Alert        SOUTHERN QUEENS  -  Heat Advisory Heat Advisory     Rip Current Statement Rip Current Statement     Air Quality Alert Air Quality Alert        NORTHEAST SUFFOLK  -  Rip Current Statement Rip Current Statement        NORTHERN NASSAU  -  Rip Current Statement Rip Current Statement        NORTHWEST SUFFOLK  -  Rip Current Statement Rip Current Statement        SOUTHEAST SUFFOLK  -  Rip Current Statement Rip Current Statement        SOUTHERN NASSAU  -  Rip Current Statement Rip Current Statement        SOUTHWEST SUFFOLK  -  Rip Current Statement Rip Current Statement      

Active alerts

Northern Queens
  Details for Northern Queens Heat Advisory  +2 additional alerts
Southern Queens
  Details for Southern Queens Heat Advisory  +2 additional alerts
Northern Nassau
  Details for Northern Nassau Rip Current Statement
Southern Nassau
  Details for Southern Nassau Rip Current Statement
Northwest Suffolk
  Details for Northwest Suffolk Rip Current Statement
Southwest Suffolk
  Details for Southwest Suffolk Rip Current Statement
Northeast Suffolk
  Details for Northeast Suffolk Rip Current Statement
Southeast Suffolk
  Details for Southeast Suffolk Rip Current Statement


WXM80 ListenWXM80 Stop

You find our weather info also at:

UK Metoffice

WeatherCloud

Weather Underground

Northeastern Weather Network

AWEKAS

Citizen Weather Observer Program (CWOP)

HAMweather, WeatherForYou, PWS Weather


Weather Underground History page Text

Daily Summary for December 6, 2017 Units:  Metric    English   Both
« Previous Day
Next Day »
Daily Weekly Monthly Yearly Custom
  High: Low: Average:
Temperature: 14.3 °C 4.1 °C 8.1 °C
Dew Point: 13.9 °C -4.3 °C 1.6 °C
Humidity: 97 % 49 % 65 %
Wind Speed: 20.3 km/h 0.2 km/h 7.1 km/h
Wind Gust: 37 km/h - -
Wind:- - WSW
Pressure: 1016.1 hPa 1008.4 hPa -
Precipitation: 0.25 mm    
Historical Graphs
 
 
Tabular Data for December 6, 2017
Time Temperature Dew Point Pressure Wind Wind Speed Wind Gust Humidity Rainfall Rate (Hourly)
00:04 14.3 °C 13.7 °C 1009 hPa SSW 5.3 km/h 7.4 km/h 96 % 0.25 mm
00:09 14.3 °C 13.7 °C 1009 hPa SSW 7.4 km/h 16.1 km/h 96 % 0.25 mm
00:19 14.3 °C 13.7 °C 1009 hPa SSW 6 km/h 9.7 km/h 96 % 0 mm
00:24 14.2 °C 13.6 °C 1009 hPa SW 8.5 km/h 13 km/h 96 % 0 mm
00:29 14.2 °C 13.6 °C 1009.4 hPa SSW 10.8 km/h 17.7 km/h 96 % 0 mm
00:34 14.2 °C 13.6 °C 1009 hPa SSW 4.8 km/h 7.4 km/h 96 % 0 mm
00:39 14.2 °C 13.6 °C 1009 hPa South 6 km/h 13 km/h 96 % 0 mm
00:44 14.2 °C 13.6 °C 1009 hPa SW 10.3 km/h 16.7 km/h 96 % 0 mm
00:49 14.2 °C 13.6 °C 1009 hPa SSW 10.3 km/h 16.7 km/h 96 % 0 mm
00:54 14.2 °C 13.6 °C 1009 hPa SSW 5.1 km/h 9.3 km/h 96 % 0 mm
00:59 14.2 °C 13.6 °C 1009 hPa SSW 7.9 km/h 12.9 km/h 96 % 0 mm
01:04 14.2 °C 13.6 °C 1008.7 hPa SSW 1.9 km/h 7.4 km/h 96 % 0 mm
01:09 14.2 °C 13.6 °C 1009 hPa SW 10 km/h 14.8 km/h 96 % 0 mm
01:14 14.2 °C 13.6 °C 1009 hPa WSW 9.3 km/h 14.5 km/h 96 % 0 mm
01:19 14.2 °C 13.6 °C 1009 hPa SSW 13.2 km/h 17.7 km/h 96 % 0 mm
01:24 14.2 °C 13.8 °C 1009.4 hPa South 6 km/h 14.8 km/h 97 % 0 mm
01:29 14.2 °C 13.8 °C 1009.4 hPa South 8.7 km/h 14.5 km/h 97 % 0 mm
01:34 14.3 °C 13.8 °C 1009.4 hPa South 7.2 km/h 17.7 km/h 97 % 0 mm
01:39 14.3 °C 13.8 °C 1009.4 hPa SSW 6.3 km/h 16.7 km/h 97 % 0 mm
01:44 14.3 °C 13.8 °C 1009.4 hPa SW 5.6 km/h 19.3 km/h 97 % 0 mm
01:49 14.3 °C 13.9 °C 1009 hPa South 6.9 km/h 11.1 km/h 97 % 0 mm
01:54 14.3 °C 13.8 °C 1009 hPa South 3.5 km/h 11.1 km/h 97 % 0 mm
01:59 14.3 °C 13.8 °C 1009 hPa SSW 8 km/h 18.5 km/h 97 % 0 mm
02:04 14.3 °C 13.8 °C 1009 hPa SW 5.3 km/h 9.3 km/h 97 % 0 mm
02:09 14.3 °C 13.8 °C 1009 hPa WSW 4.8 km/h 9.3 km/h 97 % 0 mm
02:15 14.3 °C 13.8 °C 1009 hPa WSW 8.4 km/h 11.1 km/h 97 % 0 mm
02:20 14.3 °C 13.8 °C 1009 hPa South 2.6 km/h 13 km/h 97 % 0 mm
02:25 14.3 °C 13.8 °C 1009 hPa SSW 6.3 km/h 11.3 km/h 97 % 0 mm
02:30 14.3 °C 13.8 °C 1008.7 hPa WSW 3.4 km/h 9.3 km/h 97 % 0 mm
02:35 14.3 °C 13.8 °C 1008.7 hPa WSW 4 km/h 8 km/h 97 % 0 mm
02:40 14.3 °C 13.8 °C 1008.7 hPa SW 3.2 km/h 5.6 km/h 97 % 0 mm
02:45 14.2 °C 13.8 °C 1009 hPa SW 1.8 km/h 7.4 km/h 97 % 0 mm
02:50 14.2 °C 13.8 °C 1009 hPa SW 6 km/h 11.1 km/h 97 % 0 mm
02:55 14.2 °C 13.8 °C 1009 hPa West 1.3 km/h 5.6 km/h 97 % 0 mm
03:00 14.2 °C 13.8 °C 1009 hPa WSW 3.9 km/h 11.1 km/h 97 % 0 mm
03:05 14.2 °C 13.8 °C 1009 hPa SW 7.7 km/h 18.5 km/h 97 % 0 mm
03:10 14.2 °C 13.8 °C 1008.7 hPa SSW 5.5 km/h 11.1 km/h 97 % 0 mm
03:15 14.2 °C 13.8 °C 1008.7 hPa SW 6.9 km/h 11.1 km/h 97 % 0 mm
03:20 14.2 °C 13.8 °C 1009 hPa SW 7.9 km/h 16.7 km/h 97 % 0 mm
03:25 14.2 °C 13.8 °C 1009 hPa SW 7.9 km/h 14.8 km/h 97 % 0 mm
03:30 14.2 °C 13.8 °C 1009 hPa SW 5.6 km/h 11.1 km/h 97 % 0 mm
03:35 14.2 °C 13.8 °C 1009 hPa SSW 8.9 km/h 14.8 km/h 97 % 0 mm
03:40 14.2 °C 13.7 °C 1009 hPa WSW 6.8 km/h 11.1 km/h 97 % 0 mm
03:45 14.2 °C 13.7 °C 1009.4 hPa SSW 6.3 km/h 9.7 km/h 97 % 0 mm
03:50 14.2 °C 13.7 °C 1009.4 hPa WSW 6.4 km/h 11.1 km/h 97 % 0 mm
03:55 14.2 °C 13.7 °C 1010 hPa NW 9.2 km/h 17.7 km/h 97 % 0 mm
04:00 13.4 °C 12.1 °C 1010.4 hPa NW 20.3 km/h 31.5 km/h 92 % 0 mm
04:05 12.6 °C 10.4 °C 1010.7 hPa WSW 16.3 km/h 37 km/h 87 % 0 mm
04:10 11.9 °C 9.4 °C 1010.4 hPa WNW 10 km/h 22.5 km/h 85 % 0 mm
04:15 11.5 °C 9.1 °C 1011.1 hPa WNW 7.1 km/h 25.9 km/h 85 % 0 mm
04:20 11.2 °C 8.8 °C 1011.4 hPa West 13 km/h 20.9 km/h 85 % 0 mm
04:25 11 °C 8.7 °C 1011.4 hPa WNW 6.4 km/h 22.2 km/h 86 % 0 mm
04:30 10.8 °C 8.7 °C 1011.4 hPa West 9.3 km/h 12.9 km/h 87 % 0 mm
04:35 10.6 °C 8.6 °C 1011.7 hPa WNW 4.7 km/h 18.5 km/h 87 % 0 mm
04:40 10.4 °C 8.6 °C 1011.4 hPa West 1.9 km/h 11.3 km/h 88 % 0 mm
04:45 10.3 °C 8.4 °C 1011.4 hPa West 8.5 km/h 13 km/h 88 % 0 mm
04:55 10 °C 7.9 °C 1011.1 hPa NW 5.3 km/h 11.1 km/h 87 % 0 mm
05:00 9.9 °C 7.5 °C 1011.1 hPa West 7.2 km/h 14.8 km/h 85 % 0 mm
05:05 9.8 °C 7.4 °C 1011.1 hPa SSW 7.9 km/h 11.3 km/h 85 % 0 mm
05:10 9.7 °C 7.2 °C 1011.1 hPa WSW 10.8 km/h 16.7 km/h 84 % 0.25 mm
05:15 9.7 °C 7.1 °C 1011.1 hPa WSW 5.3 km/h 11.1 km/h 84 % 0.25 mm
05:20 9.7 °C 7.1 °C 1011.1 hPa WSW 11.1 km/h 16.1 km/h 84 % 0.25 mm
05:25 9.6 °C 6.9 °C 1011.4 hPa WNW 6.4 km/h 13 km/h 83 % 0.25 mm
05:30 9.6 °C 6.8 °C 1011.4 hPa WSW 9.2 km/h 14.5 km/h 83 % 0.25 mm
05:35 9.6 °C 6.4 °C 1011.4 hPa WSW 9.8 km/h 18.5 km/h 81 % 0.25 mm
05:41 9.5 °C 6.2 °C 1011.4 hPa WSW 4.8 km/h 16.1 km/h 80 % 0 mm
05:46 9.5 °C 6.2 °C 1011.4 hPa SW 10.5 km/h 18.5 km/h 80 % 0.25 mm
05:51 9.5 °C 6.1 °C 1011.7 hPa WSW 9.7 km/h 14.5 km/h 79 % 0 mm
05:56 9.5 °C 5.8 °C 1011.7 hPa WSW 4.8 km/h 22.5 km/h 78 % 0 mm
06:01 9.5 °C 5.7 °C 1011.7 hPa SW 5 km/h 17.7 km/h 77 % 0.25 mm
06:06 9.4 °C 5.4 °C 1011.7 hPa WSW 11.3 km/h 22.5 km/h 76 % 0 mm
06:11 9.4 °C 5.4 °C 1011.7 hPa WSW 11.3 km/h 20.9 km/h 76 % 0 mm
06:16 9.4 °C 5.2 °C 1012.1 hPa WSW 8 km/h 22.5 km/h 75 % 0 mm
06:21 9.4 °C 5.2 °C 1012.1 hPa WSW 8 km/h 24.1 km/h 75 % 0 mm
06:26 9.4 °C 5.2 °C 1012.1 hPa WSW 9.7 km/h 19.3 km/h 75 % 0 mm
06:31 9.4 °C 5.2 °C 1012.1 hPa WSW 12.9 km/h 16.1 km/h 75 % 0 mm
06:36 9.4 °C 4.8 °C 1012.1 hPa WSW 9.7 km/h 22.5 km/h 73 % 0 mm
06:41 9.4 °C 4.8 °C 1012.1 hPa SW 8 km/h 24.1 km/h 73 % 0 mm
06:46 9.4 °C 4.7 °C 1012.4 hPa SW 4.8 km/h 12.9 km/h 72 % 0 mm
06:51 9.4 °C 4.7 °C 1012.1 hPa WSW 8 km/h 19.3 km/h 72 % 0 mm
06:55 9.4 °C 4.7 °C 1012.4 hPa WSW 4.8 km/h 16.1 km/h 72 % 0 mm
07:01 9.4 °C 4.4 °C 1012.4 hPa West 7.6 km/h 11.1 km/h 71 % 0 mm
07:06 9.4 °C 4.2 °C 1012.4 hPa West 6.8 km/h 13 km/h 70 % 0 mm
07:11 9.4 °C 4.2 °C 1012.4 hPa WSW 7.1 km/h 13 km/h 70 % 0 mm
07:16 9.4 °C 4 °C 1012.8 hPa WNW 9.3 km/h 14.5 km/h 69 % 0 mm
07:21 9.4 °C 3.8 °C 1012.8 hPa West 7.1 km/h 13 km/h 68 % 0 mm
07:26 9.4 °C 3.8 °C 1012.8 hPa WSW 4.7 km/h 9.3 km/h 68 % 0 mm
07:31 9.4 °C 3.8 °C 1013.1 hPa WSW 7.1 km/h 11.1 km/h 68 % 0 mm
07:36 9.3 °C 3.3 °C 1012.8 hPa West 4.2 km/h 18.5 km/h 66 % 0 mm
07:41 9.3 °C 3.3 °C 1013.1 hPa WNW 10.1 km/h 18.5 km/h 66 % 0 mm
07:46 9.3 °C 3.1 °C 1013.1 hPa WSW 12.1 km/h 18.5 km/h 65 % 0 mm
07:51 9.3 °C 2.6 °C 1013.1 hPa WNW 7.2 km/h 13 km/h 63 % 0 mm
07:54 9.3 °C 2.8 °C 1013.1 hPa West 4.8 km/h 11.1 km/h 64 % 0 mm
07:59 9.2 °C 2.6 °C 1013.4 hPa West 2.1 km/h 5.6 km/h 63 % 0 mm
08:04 9.2 °C 2.5 °C 1013.4 hPa SW 6.3 km/h 11.3 km/h 63 % 0 mm
08:09 9.1 °C 2.4 °C 1013.4 hPa West 11.3 km/h 18.5 km/h 63 % 0 mm
08:10 9.1 °C 2.4 °C 1013.4 hPa WSW 5.6 km/h 14.8 km/h 63 % 0 mm
08:15 9.1 °C 2.6 °C 1013.8 hPa NW 8.7 km/h 18.5 km/h 64 % 0 mm
08:20 9 °C 2.3 °C 1013.8 hPa West 10.1 km/h 16.7 km/h 63 % 0 mm
08:25 8.9 °C 2.1 °C 1013.8 hPa West 8 km/h 24.1 km/h 62 % 0 mm
08:30 8.8 °C 2.2 °C 1013.8 hPa WSW 9 km/h 16.7 km/h 63 % 0 mm
08:35 8.8 °C 2.2 °C 1013.8 hPa WNW 8 km/h 17.7 km/h 63 % 0 mm
08:40 8.8 °C 2.1 °C 1013.8 hPa SW 11.9 km/h 18.5 km/h 63 % 0 mm
08:50 8.7 °C 2.4 °C 1014.1 hPa WNW 7.1 km/h 14.8 km/h 65 % 0 mm
08:55 8.7 °C 2.7 °C 1014.1 hPa West 9.7 km/h 11.1 km/h 66 % 0 mm
09:00 8.6 °C 2.1 °C 1014.1 hPa West 10.3 km/h 20.4 km/h 64 % 0 mm
09:05 8.4 °C 1.8 °C 1014.1 hPa WNW 9.2 km/h 18.5 km/h 63 % 0 mm
09:10 8.3 °C 1.7 °C 1014.4 hPa NW 6.6 km/h 18.5 km/h 63 % 0 mm
09:15 8.2 °C 1.4 °C 1014.4 hPa NW 11.7 km/h 24.1 km/h 62 % 0 mm
09:19 8.2 °C 1.6 °C 1014.4 hPa WNW 10.3 km/h 14.8 km/h 63 % 0 mm
09:24 8.1 °C 1.4 °C 1014.8 hPa WNW 7.6 km/h 16.7 km/h 63 % 0 mm
09:29 7.9 °C 1.3 °C 1014.8 hPa WSW 11.6 km/h 20.4 km/h 63 % 0 mm
09:34 7.8 °C 1.2 °C 1014.8 hPa NW 10.6 km/h 20.4 km/h 63 % 0 mm
09:39 7.8 °C 0.9 °C 1014.8 hPa NW 7.1 km/h 14.8 km/h 62 % 0 mm
09:44 7.7 °C 1.1 °C 1014.8 hPa WNW 11.3 km/h 20.9 km/h 63 % 0 mm
09:49 7.6 °C 0.7 °C 1014.8 hPa WNW 12.1 km/h 18.5 km/h 62 % 0 mm
09:54 7.4 °C 0.4 °C 1014.8 hPa NW 9.8 km/h 13 km/h 61 % 0 mm
09:59 7.4 °C 0.6 °C 1015.1 hPa West 9.2 km/h 18.5 km/h 62 % 0 mm
10:04 7.3 °C 0.2 °C 1014.8 hPa WNW 12.1 km/h 20.4 km/h 61 % 0 mm
10:09 7.2 °C -0.1 °C 1015.1 hPa NW 13 km/h 20.4 km/h 60 % 0 mm
10:14 7.1 °C -0.1 °C 1015.1 hPa West 11.6 km/h 22.2 km/h 60 % 0 mm
10:19 7.1 °C 0.1 °C 1015.5 hPa WNW 12.9 km/h 25.9 km/h 61 % 0 mm
10:24 7 °C 0.2 °C 1015.1 hPa WSW 5.6 km/h 6.4 km/h 62 % 0 mm
10:29 6.9 °C -1 °C 1015.1 hPa SSW 1.9 km/h 13 km/h 57 % 0 mm
10:34 6.8 °C -1.8 °C 1015.1 hPa WSW 6.8 km/h 11.3 km/h 54 % 0 mm
10:39 6.8 °C -1.6 °C 1015.1 hPa North 11.7 km/h 16.1 km/h 55 % 0 mm
10:44 6.8 °C -1.1 °C 1014.8 hPa WSW 9.8 km/h 18.5 km/h 57 % 0 mm
10:45 6.8 °C -1.1 °C 1014.8 hPa WNW 9.5 km/h 18.5 km/h 57 % 0 mm
10:50 6.8 °C -1.6 °C 1014.8 hPa West 10 km/h 16.7 km/h 55 % 0 mm
10:55 6.8 °C -1.1 °C 1015.1 hPa NW 4 km/h 14.8 km/h 57 % 0 mm
11:00 6.8 °C -0.6 °C 1014.8 hPa WNW 4.3 km/h 9.3 km/h 59 % 0 mm
11:05 6.9 °C -0.3 °C 1014.8 hPa WNW 9.3 km/h 16.7 km/h 60 % 0 mm
11:10 6.9 °C -0.3 °C 1014.4 hPa West 8.2 km/h 24.1 km/h 60 % 0 mm
11:15 6.9 °C -0.1 °C 1014.4 hPa West 10.1 km/h 18.5 km/h 61 % 0 mm
11:20 7 °C -0.2 °C 1014.4 hPa WNW 6.8 km/h 13 km/h 60 % 0 mm
11:25 7.1 °C 0.3 °C 1014.8 hPa SW 13 km/h 18.5 km/h 62 % 0 mm
11:30 7.1 °C 0.6 °C 1014.8 hPa West 6.1 km/h 12.9 km/h 63 % 0 mm
11:40 7.1 °C -0.2 °C 1014.8 hPa West 9.5 km/h 18.5 km/h 60 % 0 mm
11:45 7.1 °C -0.2 °C 1014.8 hPa West 12.6 km/h 14.5 km/h 60 % 0 mm
11:50 7 °C -0.9 °C 1014.4 hPa West 15.1 km/h 31.5 km/h 57 % 0 mm
11:55 7 °C -1.4 °C 1014.4 hPa WNW 12.2 km/h 25.9 km/h 55 % 0 mm
12:05 6.9 °C -1.7 °C 1014.4 hPa WNW 8.5 km/h 18.5 km/h 54 % 0 mm
12:10 6.9 °C -2.1 °C 1014.4 hPa WNW 12.6 km/h 25.7 km/h 53 % 0 mm
12:15 6.8 °C -1.8 °C 1014.4 hPa NW 9.8 km/h 22.2 km/h 54 % 0 mm
12:20 6.8 °C -2.2 °C 1014.4 hPa SW 9.7 km/h 16.1 km/h 53 % 0 mm
12:25 6.8 °C -2.4 °C 1014.8 hPa WNW 8.7 km/h 13 km/h 52 % 0 mm
12:30 6.8 °C -2.9 °C 1014.4 hPa WNW 11.6 km/h 18.5 km/h 50 % 0 mm
12:32 6.8 °C -2.9 °C 1014.4 hPa WSW 12.4 km/h 18.5 km/h 50 % 0 mm
12:37 6.8 °C -2.6 °C 1014.4 hPa WSW 9.7 km/h 20.4 km/h 51 % 0 mm
12:47 6.8 °C -2.9 °C 1014.1 hPa West 8.4 km/h 13 km/h 50 % 0 mm
12:52 6.8 °C -2.6 °C 1013.8 hPa WNW 11.1 km/h 20.4 km/h 51 % 0 mm
12:57 6.8 °C -2.7 °C 1013.8 hPa SW 13.4 km/h 20.4 km/h 51 % 0 mm
13:02 6.7 °C -2.8 °C 1013.8 hPa SW 10.3 km/h 18.5 km/h 51 % 0 mm
13:07 6.6 °C -2.3 °C 1013.8 hPa WSW 6.1 km/h 9.7 km/h 53 % 0 mm
13:12 6.5 °C -2.4 °C 1013.8 hPa WNW 4.7 km/h 9.3 km/h 53 % 0 mm
13:17 6.5 °C -2.2 °C 1013.8 hPa West 12.2 km/h 16.7 km/h 54 % 0 mm
13:27 6.6 °C -2.6 °C 1013.8 hPa WSW 8.4 km/h 16.7 km/h 52 % 0 mm
13:32 6.7 °C -2.5 °C 1013.8 hPa SW 11.3 km/h 18.5 km/h 52 % 0 mm
13:37 6.7 °C -2.8 °C 1013.8 hPa WSW 8.5 km/h 18.5 km/h 51 % 0 mm
13:42 6.7 °C -2.7 °C 1013.8 hPa West 6.4 km/h 18.5 km/h 51 % 0 mm
13:47 6.8 °C -2.7 °C 1013.8 hPa SW 12.9 km/h 20.4 km/h 51 % 0 mm
13:52 6.8 °C -2.9 °C 1013.4 hPa WNW 10.1 km/h 18.5 km/h 50 % 0 mm
13:57 6.8 °C -2.9 °C 1013.4 hPa WNW 8.5 km/h 14.5 km/h 50 % 0 mm
14:02 6.7 °C -3 °C 1013.4 hPa SW 3.2 km/h 9.3 km/h 50 % 0 mm
14:07 6.7 °C -2.8 °C 1013.4 hPa WNW 11.9 km/h 18.5 km/h 51 % 0 mm
14:12 6.6 °C -3.4 °C 1013.8 hPa West 6.3 km/h 14.8 km/h 49 % 0 mm
14:17 6.5 °C -3.4 °C 1013.4 hPa WSW 7.4 km/h 22.2 km/h 49 % 0 mm
14:22 6.3 °C -3.3 °C 1013.8 hPa WSW 6.6 km/h 18.5 km/h 50 % 0 mm
14:27 6.3 °C -3.4 °C 1013.8 hPa SW 7.1 km/h 20.9 km/h 50 % 0 mm
14:32 6.2 °C -3.7 °C 1013.8 hPa SW 9.7 km/h 20.4 km/h 49 % 0 mm
14:37 6.1 °C -3.8 °C 1013.8 hPa WSW 7.2 km/h 14.8 km/h 49 % 0 mm
14:42 6.1 °C -3.6 °C 1014.1 hPa WSW 5.6 km/h 14.8 km/h 50 % 0 mm
14:47 6.1 °C -3.9 °C 1014.1 hPa WSW 5.5 km/h 20.4 km/h 49 % 0 mm
14:52 6 °C -3.9 °C 1014.1 hPa SW 11.7 km/h 11.7 km/h 49 % 0 mm
14:57 5.9 °C -4 °C 1014.1 hPa SSW 7.2 km/h 18.5 km/h 49 % 0 mm
15:03 5.9 °C -3.7 °C 1014.1 hPa SW 3.5 km/h 8 km/h 50 % 0 mm
15:08 5.9 °C -3.8 °C 1014.1 hPa WSW 6.6 km/h 13 km/h 50 % 0 mm
15:13 5.9 °C -3.8 °C 1014.1 hPa WSW 2.1 km/h 9.3 km/h 50 % 0 mm
15:18 5.8 °C -3.8 °C 1014.1 hPa WSW 9.2 km/h 11.1 km/h 50 % 0 mm
15:23 5.8 °C -4.1 °C 1014.1 hPa West 8.4 km/h 14.8 km/h 49 % 0 mm
15:28 5.8 °C -3.8 °C 1013.8 hPa SW 9.2 km/h 16.1 km/h 50 % 0 mm
15:33 5.8 °C -3.8 °C 1014.1 hPa West 9.3 km/h 18.5 km/h 50 % 0 mm
15:38 5.7 °C -3.9 °C 1014.1 hPa West 1.8 km/h 7.4 km/h 50 % 0 mm
15:43 5.7 °C -3.9 °C 1014.1 hPa SW 9.5 km/h 14.8 km/h 50 % 0 mm
15:48 5.7 °C -3.9 °C 1014.1 hPa WSW 6.6 km/h 9.7 km/h 50 % 0 mm
15:53 5.7 °C -3.9 °C 1014.1 hPa WSW 11.3 km/h 14.8 km/h 50 % 0 mm
15:58 5.6 °C -3.7 °C 1014.1 hPa SW 1.4 km/h 6.4 km/h 51 % 0 mm
16:03 5.6 °C -3.8 °C 1014.1 hPa SSW 4.3 km/h 8 km/h 51 % 0 mm
16:08 5.5 °C -3.8 °C 1014.1 hPa SW 7.4 km/h 11.1 km/h 51 % 0 mm
16:13 5.4 °C -3.9 °C 1014.1 hPa SSW 4.8 km/h 9.3 km/h 51 % 0 mm
16:18 5.4 °C -3.9 °C 1014.1 hPa WSW 2.3 km/h 5.6 km/h 51 % 0 mm
16:23 5.3 °C -4 °C 1014.1 hPa SSW 6 km/h 9.7 km/h 51 % 0 mm
16:28 5.3 °C -4.1 °C 1014.4 hPa SW 2.6 km/h 5.6 km/h 51 % 0 mm
16:33 5.3 °C -3.8 °C 1014.4 hPa SSW 4 km/h 7.4 km/h 52 % 0 mm
16:38 5.2 °C -3.8 °C 1014.4 hPa SW 6.9 km/h 13 km/h 52 % 0 mm
16:43 5.2 °C -3.9 °C 1014.4 hPa SW 2.3 km/h 7.4 km/h 52 % 0 mm
16:48 5.1 °C -3.7 °C 1014.4 hPa SW 4.2 km/h 11.1 km/h 53 % 0 mm
16:53 5.1 °C -3.7 °C 1014.4 hPa SW 3.5 km/h 11.1 km/h 53 % 0 mm
16:58 5.1 °C -3.7 °C 1014.8 hPa WSW 6.6 km/h 7.4 km/h 53 % 0 mm
17:03 5 °C -3.8 °C 1014.8 hPa SW 4.8 km/h 5.6 km/h 53 % 0 mm
17:08 5 °C -3.8 °C 1014.8 hPa WSW 2.7 km/h 9.7 km/h 53 % 0 mm
17:14 4.9 °C -3.8 °C 1014.8 hPa WSW 3.2 km/h 5.6 km/h 53 % 0 mm
17:19 4.9 °C -3.8 °C 1014.8 hPa SW 3.9 km/h 7.4 km/h 53 % 0 mm
17:24 4.9 °C -3.7 °C 1014.8 hPa SW 4.5 km/h 4.8 km/h 54 % 0 mm
17:29 4.9 °C -3.9 °C 1014.8 hPa West 5.1 km/h 8 km/h 53 % 0 mm
17:34 4.9 °C -4.1 °C 1014.8 hPa WSW 5.8 km/h 11.3 km/h 52 % 0 mm
17:39 5 °C -4.3 °C 1014.8 hPa WSW 6.4 km/h 16.7 km/h 51 % 0 mm
17:44 5.2 °C -3.9 °C 1014.8 hPa SW 5.1 km/h 9.3 km/h 52 % 0 mm
17:49 5.3 °C -4.1 °C 1014.8 hPa West 10.8 km/h 16.7 km/h 51 % 0 mm
17:54 5.4 °C -3.9 °C 1015.1 hPa WSW 11.1 km/h 20.4 km/h 51 % 0 mm
17:59 5.5 °C -3.8 °C 1015.1 hPa West 9.5 km/h 13 km/h 51 % 0 mm
18:04 5.6 °C -3.8 °C 1015.1 hPa WNW 7.9 km/h 13 km/h 51 % 0 mm
18:09 5.6 °C -3.5 °C 1015.1 hPa NW 11.3 km/h 18.5 km/h 52 % 0 mm
18:14 5.7 °C -3.4 °C 1015.1 hPa West 5 km/h 13 km/h 52 % 0 mm
18:19 5.7 °C -3.4 °C 1015.1 hPa WSW 1.8 km/h 7.4 km/h 52 % 0 mm
18:24 5.7 °C -3.4 °C 1015.1 hPa WSW 7.1 km/h 18.5 km/h 52 % 0 mm
18:29 5.7 °C -3.7 °C 1014.8 hPa West 5.5 km/h 13 km/h 51 % 0 mm
18:34 5.7 °C -3.9 °C 1014.8 hPa SW 10.1 km/h 13 km/h 50 % 0 mm
18:39 5.8 °C -3.8 °C 1015.1 hPa WNW 10.6 km/h 13 km/h 50 % 0 mm
18:45 5.8 °C -3.6 °C 1014.8 hPa West 9 km/h 13 km/h 51 % 0 mm
18:50 5.8 °C -3.6 °C 1015.1 hPa NW 5 km/h 6.4 km/h 51 % 0 mm
18:55 5.8 °C -3.6 °C 1015.1 hPa WSW 10 km/h 18.5 km/h 51 % 0 mm
19:00 5.8 °C -3.6 °C 1015.1 hPa WNW 4 km/h 13 km/h 51 % 0 mm
19:05 5.8 °C -3.6 °C 1015.5 hPa WNW 3.4 km/h 7.4 km/h 51 % 0 mm
19:10 5.8 °C -3.3 °C 1015.5 hPa WNW 7.2 km/h 11.1 km/h 52 % 0 mm
19:15 5.8 °C -3.6 °C 1015.5 hPa West 7.2 km/h 13 km/h 51 % 0 mm
19:20 5.8 °C -3.3 °C 1015.5 hPa NW 8.2 km/h 13 km/h 52 % 0 mm
19:25 5.8 °C -3.3 °C 1015.5 hPa West 4 km/h 7.4 km/h 52 % 0 mm
19:26 5.8 °C -3.3 °C 1015.5 hPa WNW 6.3 km/h 18.5 km/h 52 % 0 mm
19:31 5.8 °C -3.6 °C 1015.5 hPa West 9.3 km/h 16.7 km/h 51 % 0 mm
19:36 5.8 °C -3.6 °C 1015.8 hPa WNW 6.6 km/h 13 km/h 51 % 0 mm
19:41 5.8 °C -3.6 °C 1015.5 hPa West 9.5 km/h 13 km/h 51 % 0 mm
19:46 5.8 °C -3.6 °C 1015.8 hPa WNW 6.3 km/h 14.8 km/h 51 % 0 mm
19:52 5.8 °C -3.6 °C 1015.5 hPa WSW 3.2 km/h 14.8 km/h 51 % 0 mm
19:57 5.8 °C -3.8 °C 1015.5 hPa WSW 9.8 km/h 16.1 km/h 50 % 0 mm
20:02 5.8 °C -3.6 °C 1015.5 hPa WSW 9.3 km/h 13 km/h 51 % 0 mm
20:07 5.7 °C -3.7 °C 1015.8 hPa West 3.7 km/h 7.4 km/h 51 % 0 mm
20:09 5.7 °C -3.9 °C 1015.5 hPa West 7.4 km/h 13 km/h 50 % 0 mm
20:14 5.7 °C -3.4 °C 1015.5 hPa WSW 4.3 km/h 9.3 km/h 52 % 0 mm
20:19 5.7 °C -3.2 °C 1015.5 hPa West 7.6 km/h 13 km/h 53 % 0 mm
20:24 5.7 °C -3.2 °C 1015.5 hPa West 7.7 km/h 18.5 km/h 53 % 0 mm
20:29 5.7 °C -3.4 °C 1015.5 hPa WSW 7.9 km/h 14.8 km/h 52 % 0 mm
20:34 5.7 °C -3.4 °C 1015.5 hPa WNW 5.8 km/h 9.3 km/h 52 % 0 mm
20:39 5.6 °C -3.2 °C 1015.8 hPa WNW 3.1 km/h 7.4 km/h 53 % 0 mm
20:44 5.6 °C -3.2 °C 1015.8 hPa WSW 2.1 km/h 5.6 km/h 53 % 0 mm
20:49 5.6 °C -3 °C 1015.8 hPa WSW 4.5 km/h 7.4 km/h 54 % 0 mm
20:54 5.6 °C -3.3 °C 1015.8 hPa SW 6.1 km/h 11.1 km/h 53 % 0 mm
20:59 5.5 °C -3.3 °C 1015.8 hPa West 3.4 km/h 7.4 km/h 53 % 0 mm
21:04 5.5 °C -3.3 °C 1015.8 hPa WSW 1.8 km/h 5.6 km/h 53 % 0 mm
21:09 5.4 °C -3.4 °C 1015.8 hPa South 1.9 km/h 13 km/h 53 % 0 mm
21:14 5.3 °C -3.5 °C 1015.8 hPa WSW 2.9 km/h 5.6 km/h 53 % 0 mm
21:19 5.3 °C -3.3 °C 1015.8 hPa SW 1.9 km/h 7.4 km/h 54 % 0 mm
21:24 5.2 °C -3.3 °C 1015.8 hPa West 6.6 km/h 17.7 km/h 54 % 0 mm
21:29 5.2 °C -3.4 °C 1015.8 hPa SW 6.8 km/h 13 km/h 54 % 0 mm
21:34 5.1 °C -3.2 °C 1015.8 hPa SW 6.4 km/h 9.7 km/h 55 % 0 mm
21:39 5.1 °C -3.3 °C 1016.1 hPa SW 5.5 km/h 9.3 km/h 55 % 0 mm
21:44 5 °C -3.3 °C 1016.1 hPa SW 8.9 km/h 13 km/h 55 % 0 mm
21:49 4.9 °C -3.3 °C 1015.8 hPa SE 7.1 km/h 13 km/h 55 % 0 mm
21:54 4.9 °C -3.4 °C 1015.8 hPa SW 6.1 km/h 11.1 km/h 55 % 0 mm
21:59 4.9 °C -3.2 °C 1015.8 hPa South 5 km/h 18.5 km/h 56 % 0 mm
22:00 4.9 °C -3.2 °C 1015.8 hPa WSW 3.7 km/h 18.5 km/h 56 % 0 mm
22:05 4.8 °C -3 °C 1015.8 hPa SW 0.3 km/h 9.3 km/h 57 % 0 mm
22:10 4.8 °C -3 °C 1015.8 hPa SW 8.4 km/h 13 km/h 57 % 0 mm
22:15 4.8 °C -3 °C 1015.8 hPa SW 3.5 km/h 9.3 km/h 57 % 0 mm
22:20 4.8 °C -3 °C 1015.8 hPa WSW 5.8 km/h 8 km/h 57 % 0 mm
22:22 4.8 °C -3.1 °C 1008.4 hPa WSW 6.1 km/h 14.8 km/h 57 % 0 mm
22:23 4.8 °C -3.1 °C 1008.4 hPa WSW 5.8 km/h 14.8 km/h 57 % 0 mm
22:28 4.8 °C -3.3 °C 1015.8 hPa SW 7.7 km/h 9.3 km/h 56 % 0 mm
22:33 4.7 °C -3.6 °C 1015.8 hPa WSW 4.7 km/h 11.1 km/h 55 % 0 mm
22:38 4.7 °C -3.6 °C 1015.8 hPa SSW 6.4 km/h 14.8 km/h 55 % 0 mm
22:43 4.7 °C -3.6 °C 1015.8 hPa SW 5.3 km/h 9.3 km/h 55 % 0 mm
22:48 4.7 °C -3.6 °C 1015.8 hPa WSW 3.7 km/h 11.1 km/h 55 % 0 mm
22:53 4.7 °C -3.6 °C 1015.8 hPa SSW 1.8 km/h 5.6 km/h 55 % 0 mm
22:58 4.6 °C -3.9 °C 1015.8 hPa WSW 3.5 km/h 11.1 km/h 54 % 0 mm
23:03 4.6 °C -3.9 °C 1015.8 hPa WSW 0.2 km/h 1.9 km/h 54 % 0 mm
23:08 4.6 °C -3.7 °C 1015.8 hPa SSW 4 km/h 7.4 km/h 55 % 0 mm
23:13 4.4 °C -3.8 °C 1015.8 hPa West 2.6 km/h 9.3 km/h 55 % 0 mm
23:18 4.4 °C -3.6 °C 1015.5 hPa SW 0.6 km/h 1.9 km/h 56 % 0 mm
23:23 4.4 °C -3.6 °C 1015.8 hPa SW 3.7 km/h 6.4 km/h 56 % 0 mm
23:28 4.3 °C -3.7 °C 1015.5 hPa SW 1 km/h 5.6 km/h 56 % 0 mm
23:33 4.3 °C -3.5 °C 1015.8 hPa South 0.5 km/h 1.9 km/h 57 % 0 mm
23:38 4.2 °C -3.8 °C 1015.5 hPa SW 4.2 km/h 11.1 km/h 56 % 0 mm
23:43 4.2 °C -3.8 °C 1015.5 hPa WSW 6.3 km/h 13 km/h 56 % 0 mm
23:48 4.1 °C -3.9 °C 1015.5 hPa SW 1.8 km/h 5.6 km/h 56 % 0 mm
23:53 4.1 °C -3.9 °C 1015.1 hPa SW 2.4 km/h 9.3 km/h 56 % 0 mm
23:58 4.1 °C -3.7 °C 1015.5 hPa SSW 5.5 km/h 7.4 km/h 57 % 0 mm
Crab Meadow Weather
Compliments of Weather Underground - 3 mb

Script developed by  Jim McMurry - jmcmurry@mwt.net Adapted for the template by  Wim van der Kuil - Leuven-Template.eu

Pollen: Each year American vegetation spews forth some 1,000,000 tons of pollen into the air we breathe.